Weather History for Bentonville, AR

Change the Weather History Date:

Saturday, July 26, 2014

  Actual Average Record
Temperature  
Mean Temperature 76 °F -  
Max Temperature 82 °F 90 °F 101 °F (1977)
Min Temperature 73 °F 67 °F 57 °F (1991)
Cooling Degree Days 12    
Growing Degree Days 26 (Base 50)    
Moisture  
Dew Point 69 °F    
Average Humidity 83    
Maximum Humidity 88    
Minimum Humidity 66    
Precipitation  
Precipitation 0.00 in - - ()
Sea Level Pressure  
Sea Level Pressure 29.98 in    
Wind  
Wind Speed 7 mph (SSW)    
Max Wind Speed 15 mph    
Max Gust Speed 21 mph    
Visibility 6 miles    
Events      
Averages and records for this station are not official NWS values.
T = Trace of Precipitation, MM = Missing Value Source: NWS Daily Summary

Daily Weather History Graph

Daily Weather History Graph

Search for Another Location

Airport:

Trip Planner

Search our weather history database for the weather conditions in past years. The results will help you decide how hot, cold, wet, or windy it might be!

Date:

Astronomy

Jul. 26, 2014 Rise Set
Actual Time 6:18 AM CDT 8:27 PM CDT
Civil Twilight 5:49 AM CDT 8:56 PM CDT
Nautical Twilight 5:14 AM CDT 9:31 PM CDT
Astronomical Twilight 4:36 AM CDT 10:09 PM CDT
Moon 6:10 AM CDT (7/26) 8:05 PM CDT (7/26)
Length of Visible Light 15h 06m
Length of Day
14h 08m
Waning Crescent, 0% of the Moon is Illuminated
Jul 26
Waning Crescent
Jul 26
New
Aug 3
First Quarter
Aug 10
Full
Aug 17
Last Quarter

Hourly Weather History & Observations

Time (CDT) Temp. Heat Index Dew Point Humidity Pressure Visibility Wind Dir Wind Speed Gust Speed Precip Events Conditions
12:15 AM 75.2 °F - 69.8 °F 83% 29.98 in 10.0 mi South 6.9 mph - N/A   Clear
12:35 AM 75.2 °F - 69.8 °F 83% 29.98 in 9.0 mi South 5.8 mph - N/A   Clear
12:55 AM 75.2 °F - 69.8 °F 83% 29.98 in 8.0 mi SSW 5.8 mph - N/A   Clear
1:15 AM 75.2 °F - 69.8 °F 83% 29.97 in 7.0 mi SSW 5.8 mph - N/A   Clear
1:35 AM 73.4 °F - 69.8 °F 88% 29.97 in 7.0 mi South 5.8 mph - N/A   Clear
1:55 AM 73.4 °F - 69.8 °F 88% 29.96 in 6.0 mi SSW 5.8 mph - N/A   Clear
2:15 AM 73.4 °F - 69.8 °F 88% 29.96 in 5.0 mi SSW 8.1 mph - N/A   Clear
2:35 AM 73.4 °F - 69.8 °F 88% 29.95 in 6.0 mi SSW 8.1 mph - N/A   Clear
2:55 AM 75.2 °F - 69.8 °F 83% 29.96 in 6.0 mi SSW 6.9 mph - N/A   Clear
3:15 AM 73.4 °F - 69.8 °F 88% 29.95 in 6.0 mi SSW 8.1 mph - N/A   Clear
3:35 AM 73.4 °F - 69.8 °F 88% 29.95 in 5.0 mi South 5.8 mph - N/A   Clear
3:55 AM 73.4 °F - 68.0 °F 83% 29.96 in 5.0 mi South 4.6 mph - N/A   Clear
4:15 AM 73.4 °F - 68.0 °F 83% 29.96 in 5.0 mi SSW 4.6 mph - N/A   Clear
4:35 AM 73.4 °F - 69.8 °F 88% 29.97 in 5.0 mi SSW 4.6 mph - N/A   Clear
4:55 AM 73.4 °F - 68.0 °F 83% 29.97 in 5.0 mi SSW 5.8 mph - N/A   Clear
5:15 AM 73.4 °F - 69.8 °F 88% 29.98 in 5.0 mi SSW 5.8 mph - N/A   Clear
5:35 AM 73.4 °F - 69.8 °F 88% 29.98 in 5.0 mi SSW 8.1 mph - N/A   Clear
5:55 AM 73.4 °F - 69.8 °F 88% 29.98 in 5.0 mi SSW 6.9 mph - N/A   Clear
6:15 AM 73.4 °F - 68.0 °F 83% 29.99 in 5.0 mi SSW 5.8 mph - N/A   Clear
6:35 AM 73.4 °F - 68.0 °F 83% 29.99 in 4.0 mi SSW 4.6 mph - N/A   Clear
6:55 AM 73.4 °F - 68.0 °F 83% 29.99 in 5.0 mi SSW 4.6 mph - N/A   Clear
7:15 AM 75.2 °F - 69.8 °F 83% 29.99 in 5.0 mi SSW 5.8 mph - N/A   Clear
7:35 AM 75.2 °F - 69.8 °F 83% 30.00 in 5.0 mi SW 5.8 mph - N/A   Clear
7:55 AM 77.0 °F - 69.8 °F 78% 30.00 in 7.0 mi SSW 8.1 mph - N/A   Clear
8:15 AM 77.0 °F - 69.8 °F 78% 30.01 in 8.0 mi SW 10.4 mph - N/A   Clear
8:35 AM 78.8 °F - 69.8 °F 74% 30.01 in 10.0 mi SW 11.5 mph - N/A   Clear
8:55 AM 80.6 °F 83.9 °F 69.8 °F 70% 30.02 in 10.0 mi SW 12.7 mph 17.3 mph N/A   Clear
9:15 AM 82.4 °F 86.3 °F 69.8 °F 66% 30.02 in 10.0 mi SW 15.0 mph 20.7 mph N/A   Clear